Myrtle Beach, SC

5:59 AM EST on January 21, 2017 (GMT -0500)
Myrtle Beach International Airport

Weather History for KMYR - April, 2014

Change the Weather History Date:

Saturday, April 5, 2014

  Actual Average Record
Temperature  
Mean Temperature 71 °F -  
Max Temperature 80 °F 68 °F 80 °F (2014)
Min Temperature 62 °F 50 °F 36 °F (1992)
Cooling Degree Days 6    
Growing Degree Days 21 (Base 50)    
Moisture  
Dew Point 56 °F    
Average Humidity 64    
Maximum Humidity 82    
Minimum Humidity 36    
Precipitation  
Precipitation 0.00 in - - ()
Sea Level Pressure  
Sea Level Pressure 29.93 in    
Wind  
Wind Speed 9 mph (WSW)    
Max Wind Speed 15 mph    
Max Gust Speed 20 mph    
Visibility 10 miles    
Events      
Averages and records for this station are not official NWS values.
T = Trace of Precipitation, MM = Missing Value Source: NWS Daily Summary

Daily Weather History Graph

Daily Weather History Graph

Search for Another Location

Airport or City:

Trip Planner

Search our weather history database for the weather conditions in past years. The results will help you decide how hot, cold, wet, or windy it might be!

Date:

Astronomy

Apr. 05, 2014 Rise Set
Actual Time 6:57 AM EDT 7:39 PM EDT
Civil Twilight 6:32 AM EDT 8:04 PM EDT
Nautical Twilight 6:03 AM EDT 8:34 PM EDT
Astronomical Twilight 5:32 AM EDT 9:04 PM EDT
Moon 11:14 AM EDT (4/5) 12:37 AM EDT (4/5)
Length of Visible Light 13h 31m
Length of Day
12h 41m
Waxing Crescent, 34% of the Moon is Illuminated
Apr 5
Waxing Crescent
Apr 7
First Quarter
Apr 15
Full
Apr 22
Last Quarter
Apr 29
New

Hourly Weather History & Observations

Time (EDT) Temp. Dew Point Humidity Pressure Visibility Wind Dir Wind Speed Gust Speed Precip Events Conditions
12:15 AM 68.0 °F 55.4 °F 64% 29.89 in 10.0 mi SSW 8.1 mph - N/A   Clear
12:35 AM 69.8 °F 55.4 °F 60% 29.90 in 10.0 mi SW 9.2 mph - N/A   Clear
12:55 AM 69.8 °F 55.4 °F 60% 29.90 in 10.0 mi SW 11.5 mph - N/A   Clear
1:15 AM 69.8 °F 55.4 °F 60% 29.90 in 10.0 mi SSW 9.2 mph - N/A   Clear
1:35 AM 69.8 °F 57.2 °F 64% 29.90 in 10.0 mi SW 8.1 mph - N/A   Clear
1:55 AM 69.8 °F 57.2 °F 64% 29.91 in 10.0 mi SW 10.4 mph 16.1 mph N/A   Scattered Clouds
2:15 AM 69.8 °F 57.2 °F 64% 29.91 in 10.0 mi SW 9.2 mph - N/A   Overcast
2:35 AM 68.0 °F 57.2 °F 68% 29.91 in 10.0 mi SW 8.1 mph - N/A   Mostly Cloudy
2:55 AM 68.0 °F 57.2 °F 68% 29.91 in 10.0 mi SW 9.2 mph - N/A   Partly Cloudy
3:15 AM 68.0 °F 57.2 °F 68% 29.91 in 10.0 mi SW 8.1 mph - N/A   Scattered Clouds
3:35 AM 69.8 °F 57.2 °F 64% 29.90 in 10.0 mi WSW 10.4 mph 17.3 mph N/A   Partly Cloudy
3:55 AM 68.0 °F 57.2 °F 68% 29.91 in 10.0 mi WSW 9.2 mph - N/A   Clear
4:15 AM 66.2 °F 57.2 °F 73% 29.91 in 10.0 mi WSW 10.4 mph - N/A   Clear
4:35 AM 66.2 °F 57.2 °F 73% 29.91 in 10.0 mi WSW 9.2 mph - N/A   Clear
4:55 AM 66.2 °F 57.2 °F 73% 29.91 in 10.0 mi WSW 10.4 mph - N/A   Clear
5:15 AM 66.2 °F 57.2 °F 73% 29.91 in 10.0 mi WSW 8.1 mph - N/A   Clear
5:35 AM 64.4 °F 57.2 °F 77% 29.91 in 10.0 mi WSW 8.1 mph - N/A   Clear
5:50 AM 64.4 °F 57.2 °F 77% 29.92 in 10.0 mi WSW 11.5 mph - N/A   Clear
6:45 AM 64.4 °F 57.2 °F 77% 29.92 in 10.0 mi WSW 11.5 mph - N/A   Clear
7:45 AM 64.4 °F 57.2 °F 77% 29.94 in 10.0 mi WSW 11.5 mph - N/A   Clear
8:45 AM 68.0 °F 55.4 °F 64% 29.95 in 10.0 mi WSW 11.5 mph - N/A   Clear
9:45 AM 71.6 °F 53.6 °F 53% 29.95 in 10.0 mi West 11.5 mph - N/A   Clear
10:45 AM 73.4 °F 51.8 °F 47% 29.96 in 10.0 mi WSW 11.5 mph - N/A   Clear
11:45 AM 77.0 °F 51.8 °F 41% 29.96 in 10.0 mi West 11.5 mph - N/A   Clear
12:45 PM 78.8 °F 50.0 °F 36% 29.96 in 10.0 mi West 11.5 mph 17.3 mph N/A   Clear
1:45 PM 78.8 °F 51.8 °F 39% 29.94 in 10.0 mi West 11.5 mph 17.3 mph N/A   Clear
2:50 PM 80.6 °F 51.8 °F 37% 29.92 in 10.0 mi West 12.7 mph - N/A   Scattered Clouds
3:45 PM 78.8 °F 55.4 °F 44% 29.91 in 10.0 mi West 10.4 mph - N/A   Clear
4:45 PM 77.0 °F 53.6 °F 44% 29.91 in 10.0 mi WSW 15.0 mph - N/A   Clear
5:45 PM 78.8 °F 51.8 °F 39% 29.91 in 10.0 mi West 11.5 mph 19.6 mph N/A   Clear
7:45 PM 68.0 °F 57.2 °F 68% 29.93 in 10.0 mi South 5.8 mph - N/A   Clear
8:50 PM 64.4 °F 57.2 °F 77% 29.96 in 10.0 mi South 8.1 mph - N/A   Clear
9:50 PM 64.4 °F 57.2 °F 77% 29.98 in 10.0 mi South 5.8 mph - N/A   Clear
10:55 PM 62.6 °F 57.2 °F 82% 29.98 in 10.0 mi Calm Calm - N/A   Clear
11:15 PM 62.6 °F 57.2 °F 82% 29.99 in 10.0 mi North 6.9 mph - N/A   Clear
11:35 PM 62.6 °F 57.2 °F 82% 29.99 in 10.0 mi NNE 8.1 mph - N/A   Clear
11:55 PM 64.4 °F 53.6 °F 68% 29.99 in 10.0 mi NNE 11.5 mph - N/A   Clear